Sunday, April 22, 2018, 9:36 PM EDT
Back to Local

KIWI, Wiscasset Municipal Airport

Location: Wiscasset, ME, United States Lat: 43.967
Local Time: 9:36 PM EDT ( 1:36 GMT) Lon: -69.717
Time Zone: US/Eastern Elev: 68 ft

Show me the last for .
Show Decoded

2018-04-22 20:53 METAR KIWI 230053Z AUTO 00000KT 10SM CLR 06/M04 A3035 RMK AO2 SLP278 T00561039 =
2018-04-22 19:53 METAR KIWI 222353Z AUTO 00000KT 10SM CLR 10/M09 A3032 RMK AO2 SLP267 T01001089
                 10156 20100 53018 =
2018-04-22 18:53 METAR KIWI 222253Z AUTO 00000KT 10SM CLR 13/M10 A3030 RMK AO2 SLP259 T01281100 =
2018-04-22 17:53 METAR KIWI 222153Z AUTO 33007KT 10SM CLR 14/M10 A3027 RMK AO2 SLP252 T01441100 =
2018-04-22 16:53 METAR KIWI 222053Z AUTO VRB05KT 10SM CLR 15/M11 A3027 RMK AO2 SLP249 T01501106
                 57008 =
2018-04-22 15:53 METAR KIWI 221953Z AUTO VRB06KT 10SM CLR 15/M09 A3028 RMK AO2 SLP252 T01501094 =
2018-04-22 14:53 METAR KIWI 221853Z AUTO VRB05KT 10SM CLR 14/M09 A3028 RMK AO2 SLP254 T01441094 =
2018-04-22 13:53 METAR KIWI 221753Z AUTO VRB04KT 10SM CLR 14/M09 A3029 RMK AO2 SLP257 T01391094
                 10144 20067 58008 =
2018-04-22 12:53 METAR KIWI 221653Z AUTO VRB05KT 10SM CLR 13/M09 A3030 RMK AO2 SLP261 T01331089 =
2018-04-22 11:53 METAR KIWI 221553Z AUTO VRB06KT 10SM CLR 12/M08 A3031 RMK AO2 SLP264 T01221083 =
2018-04-22 10:53 METAR KIWI 221453Z AUTO VRB05G18KT 10SM CLR 11/M08 A3031 RMK AO2 SLP265
                 T01061078 58001 =
2018-04-22 09:53 METAR KIWI 221353Z AUTO VRB06KT 10SM CLR 10/M07 A3031 RMK AO2 SLP265 T01001072 =
2018-04-22 08:53 METAR KIWI 221253Z AUTO VRB03KT 10SM CLR 08/M06 A3032 RMK AO2 SLP267 T00831056 =
2018-04-22 07:53 METAR KIWI 221153Z AUTO VRB04KT 10SM CLR 06/M04 A3032 RMK AO2 SLP266 T00611039
                 10061 21028 51012 =
2018-04-22 06:53 METAR KIWI 221053Z AUTO 00000KT 10SM CLR 00/M02 A3031 RMK AO2 SLP264 T00001022 =
2018-04-22 05:53 METAR KIWI 220953Z AUTO 00000KT 10SM CLR M02/M04 A3030 RMK AO2 SLP259 T10221044
                 =
2018-04-22 04:53 METAR KIWI 220853Z AUTO 00000KT 10SM CLR M02/M04 A3028 RMK AO2 SLP254 T10221044
                 51002 =
2018-04-22 03:53 METAR KIWI 220753Z AUTO 00000KT 10SM CLR M02/M04 A3028 RMK AO2 SLP253 T10221039
                 =
2018-04-22 02:53 METAR KIWI 220653Z AUTO 00000KT 10SM CLR M01/M03 A3028 RMK AO2 SLP252 T10111033
                 =
2018-04-22 01:53 METAR KIWI 220553Z AUTO 00000KT 10SM CLR M01/M03 A3027 RMK AO2 SLP251 T10111033
                 10094 21011 58003 =
2018-04-22 00:53 METAR KIWI 220453Z AUTO 00000KT 10SM CLR M01/M03 A3028 RMK AO2 SLP253 T10061033
                 401221017 =
2018-04-21 23:53 METAR KIWI 220353Z AUTO 00000KT 10SM BKN090 01/M03 A3028 RMK AO2 SLP252
                 T00111033 =
2018-04-21 22:53 METAR KIWI 220253Z AUTO 00000KT 10SM SCT090 03/M03 A3028 RMK AO2 SLP254
                 T00281033 51013 =
2018-04-21 21:53 METAR KIWI 220153Z AUTO 00000KT 10SM FEW080 07/M04 A3028 RMK AO2 SLP254
                 T00671044 =

Support USWX by starting your Amazon purchase here.